Date,TemperatureHighF,TemperatureAvgF,TemperatureLowF,DewpointHighF,DewpointAvgF,DewpointLowF,HumidityHigh,HumidityAvg,HumidityLow,PressureMaxIn,PressureMinIn,WindSpeedMaxMPH,WindSpeedAvgMPH,GustSpeedMaxMPH,PrecipitationSumIn
2014-1-1,68.4,54.8,44.1,56.3,47.2,36.8,98,77,52,30.11,30.01,6,1,9,0.00
2014-1-2,77.7,61.2,49.6,54.7,41.0,28.7,75,50,25,30.07,29.95,7,1,10,0.00
2014-1-3,66.7,54.1,44.8,55.4,49.7,40.9,97,86,65,30.01,29.89,6,1,11,0.00
2014-1-4,65.2,55.5,48.0,54.8,50.9,44.6,96,85,56,30.00,29.91,4,1,7,0.00
2014-1-5,78.5,59.5,45.1,46.6,36.1,19.7,96,51,12,30.12,30.00,11,2,13,0.00
2014-1-6,79.5,65.8,53.7,25.8,18.2,10.2,32,17,9,30.17,30.06,8,3,13,0.00
2014-1-7,65.7,56.7,47.0,54.3,41.7,21.1,87,60,24,30.12,30.01,5,1,9,0.00
2014-1-8,63.9,54.7,48.6,55.0,50.6,43.5,97,87,68,30.10,29.99,7,1,10,0.00
2014-1-9,63.9,54.8,49.5,54.5,51.3,47.6,97,89,70,30.08,29.95,9,2,13,0.00
2014-1-10,68.5,54.7,46.2,56.4,49.6,45.1,98,84,53,30.12,30.00,10,1,12,0.00
2014-1-11,70.3,57.5,46.9,55.5,49.4,45.5,97,77,51,30.15,30.01,7,1,11,0.00
2014-1-12,69.6,57.1,48.5,56.8,50.3,40.9,98,80,46,30.13,30.01,7,2,11,0.00
2014-1-13,81.5,65.9,54.9,40.6,28.4,21.3,55,26,11,30.28,30.12,8,2,12,0.00
2014-1-14,83.9,64.6,51.7,38.1,26.4,17.1,44,27,9,30.28,30.15,7,2,11,0.00
2014-1-15,88.9,68.6,57.1,35.5,27.1,19.9,36,23,9,30.19,30.06,6,2,9,0.00
2014-1-16,86.1,67.0,55.6,36.2,24.9,16.5,37,22,8,30.11,29.99,7,2,8,0.00
2014-1-17,85.4,69.3,54.5,32.3,20.6,13.3,36,17,8,30.09,29.99,9,3,16,0.00
2014-1-18,77.9,61.1,48.0,44.9,31.2,19.0,64,36,12,30.08,29.96,5,1,14,0.00
2014-1-19,76.1,58.8,47.8,42.5,36.4,24.2,69,47,15,30.09,30.00,6,1,12,0.00
2014-1-20,78.4,58.0,45.6,50.5,39.4,30.0,76,53,19,30.14,30.03,6,1,10,0.00
2014-1-21,78.7,64.4,50.4,48.8,36.6,23.1,76,39,13,30.13,30.02,7,2,10,0.00
2014-1-22,72.3,59.4,51.1,57.2,50.4,33.5,97,75,35,30.01,29.85,8,2,12,0.00
2014-1-23,62.3,56.5,51.8,54.4,52.4,49.8,94,87,69,30.07,29.87,6,1,7,0.00
2014-1-24,68.8,59.9,52.4,54.2,48.3,37.7,94,68,32,30.19,30.06,6,1,7,0.00
2014-1-25,73.3,62.3,53.7,51.6,45.9,39.0,75,56,33,30.18,30.06,8,2,11,0.00
2014-1-26,65.9,57.9,50.3,56.5,49.5,41.3,90,75,46,30.12,29.99,7,1,14,0.00
2014-1-27,66.5,58.1,51.0,58.0,52.9,48.7,95,83,70,30.07,29.98,12,2,13,0.00
2014-1-28,66.3,56.1,48.7,57.0,53.0,47.3,98,90,72,30.11,30.00,10,1,12,0.00
2014-1-29,69.6,58.4,50.8,59.0,54.4,49.6,98,88,61,30.06,29.90,7,1,11,0.01
2014-1-30,59.1,57.6,56.2,56.3,54.3,52.3,94,89,82,29.95,29.85,7,2,12,0.01
2014-1-31,61.5,57.3,53.5,53.1,45.7,24.1,91,68,29,29.95,29.86,14,4,17,0.00
2014-2-1,66.1,56.9,49.5,41.3,32.2,27.0,57,40,24,30.03,29.93,10,4,17,0.00
2014-2-2,61.5,51.8,43.7,51.9,41.2,26.2,91,68,46,30.08,29.94,8,2,14,0.24
2014-2-3,61.3,52.6,46.0,49.3,46.6,42.0,96,81,60,29.96,29.87,14,2,19,0.03
2014-2-4,61.1,52.4,44.9,51.3,46.7,41.6,94,82,65,30.06,29.95,7,2,9,0.00
2014-2-5,62.0,53.9,45.9,49.7,46.6,41.3,96,77,63,30.11,29.98,11,2,15,0.00
2014-2-6,63.6,54.7,50.1,53.3,50.5,46.1,97,86,63,30.05,29.96,10,2,15,0.38
2014-2-7,62.5,55.2,48.1,54.2,50.9,47.2,98,86,67,30.19,30.01,9,2,13,0.01
2014-2-8,64.2,57.7,53.7,54.2,52.3,50.3,91,83,64,30.25,30.16,10,2,17,0.00
2014-2-9,64.4,57.9,54.1,56.2,54.0,51.2,97,87,72,30.20,30.07,9,2,16,0.01
2014-2-10,71.1,58.8,52.5,58.1,54.1,51.1,97,86,54,30.12,29.97,11,2,17,0.00
2014-2-11,71.7,59.7,52.4,58.9,53.6,47.8,98,82,46,30.07,29.98,10,1,13,0.00
2014-2-12,76.8,61.7,49.8,58.6,49.1,39.7,89,65,39,30.11,29.99,9,2,13,0.00
2014-2-13,76.5,61.1,49.7,57.7,49.5,41.6,83,67,41,30.05,29.94,7,2,14,0.00
2014-2-14,77.5,60.5,48.2,58.7,51.0,46.1,94,73,41,30.03,29.92,7,2,11,0.00
2014-2-15,75.9,60.5,49.4,58.6,52.1,45.1,94,76,48,30.01,29.91,6,1,12,0.00
2014-2-16,69.5,59.4,52.4,58.1,53.1,45.4,96,81,60,30.04,29.93,15,2,17,0.00
2014-2-17,64.7,56.3,48.7,56.7,52.6,47.3,98,88,72,30.05,29.96,9,2,17,0.00
2014-2-18,63.5,57.3,51.9,53.8,51.7,49.9,93,82,69,30.04,29.94,9,2,12,0.00
2014-2-19,64.6,56.1,49.8,54.6,51.9,48.5,98,87,70,29.99,29.85,9,2,18,0.00
2014-2-20,80.2,62.0,49.6,57.8,49.0,38.9,97,67,26,30.01,29.91,6,2,10,0.01
2014-2-21,74.4,60.9,52.9,57.5,48.4,36.2,96,68,25,29.97,29.83,8,1,10,0.00
2014-2-22,70.5,59.7,50.8,56.6,51.3,42.6,95,77,37,29.91,29.82,9,1,12,0.00
2014-2-23,69.9,58.0,48.8,55.6,52.3,47.7,98,83,46,29.98,29.87,8,2,11,0.00
2014-2-24,70.0,58.4,48.6,57.1,53.1,47.5,98,84,58,30.01,29.89,9,2,16,0.01
2014-2-25,65.2,59.0,53.8,54.0,52.5,50.3,89,80,66,30.02,29.93,9,2,14,0.00
2014-2-26,65.0,59.9,56.7,56.8,53.9,51.1,90,81,66,30.07,29.98,8,2,11,0.00
2014-2-27,66.7,61.1,58.2,59.6,57.7,55.3,97,89,69,29.99,29.83,10,3,15,0.74
2014-2-28,63.1,58.8,55.9,60.3,56.5,52.9,98,92,85,29.82,29.63,19,5,23,1.19
2014-3-1,63.4,56.6,52.8,57.3,54.0,51.6,97,91,76,29.94,29.73,8,2,17,1.49
2014-3-2,63.4,56.0,51.7,56.5,53.5,50.4,98,92,76,30.12,29.94,6,1,11,0.09
2014-3-3,66.6,56.6,49.9,57.3,52.7,48.8,98,88,70,30.12,29.99,10,2,15,0.00
2014-3-4,66.1,59.0,51.7,57.5,55.1,50.5,98,88,71,30.03,29.94,9,2,15,0.00
2014-3-5,70.8,61.3,55.6,60.3,56.6,53.9,97,85,68,30.06,29.96,16,2,16,0.00
2014-3-6,68.2,60.7,56.0,60.6,57.1,54.2,96,88,75,30.05,29.93,11,2,16,0.00
2014-3-7,69.9,60.2,52.3,58.8,52.5,45.1,98,78,43,29.99,29.87,11,2,15,0.01
2014-3-8,82.2,66.6,50.3,51.4,40.0,27.5,85,45,17,30.08,29.93,11,2,18,0.00
2014-3-9,83.9,72.0,57.2,39.7,30.2,22.7,43,23,13,30.12,30.00,11,2,15,0.00
2014-3-10,77.2,63.8,51.1,55.3,44.2,31.8,84,51,28,30.05,29.94,9,2,15,0.00
2014-3-11,72.1,61.7,54.3,57.4,54.3,46.8,95,79,42,29.98,29.87,9,1,10,0.00
2014-3-12,76.5,62.1,52.4,56.9,51.9,38.9,98,74,27,29.99,29.87,12,2,19,0.00
2014-3-13,67.3,60.3,53.0,54.0,52.2,49.3,91,76,53,29.99,29.88,10,2,14,0.00
2014-3-14,69.2,58.2,49.8,57.6,53.4,48.6,98,85,66,30.08,29.99,12,2,17,0.00
2014-3-15,82.6,65.5,52.5,60.0,51.4,36.1,98,66,23,30.17,30.08,7,2,12,0.01
2014-3-16,89.1,70.3,55.2,47.4,40.1,28.9,74,39,12,30.19,30.03,11,2,19,0.00
2014-3-17,76.0,62.5,54.4,59.3,52.5,40.7,92,71,39,30.03,29.74,11,3,20,0.00
2014-3-18,71.4,61.3,53.8,57.1,54.5,51.8,96,80,58,29.91,29.77,12,2,16,0.00
2014-3-19,77.5,62.2,52.6,59.0,55.0,45.7,97,80,34,30.02,29.91,11,2,13,0.00
2014-3-20,70.9,59.0,52.0,58.4,53.9,49.7,97,84,62,30.02,29.89,13,2,17,0.01
2014-3-21,66.1,58.6,52.6,53.3,51.5,49.5,94,78,59,30.00,29.92,9,2,15,0.00
2014-3-22,65.0,58.7,51.5,54.8,51.6,48.4,90,78,65,30.08,29.96,12,2,17,0.00
2014-3-23,67.1,57.7,49.6,55.9,52.3,47.6,97,83,65,30.12,29.99,13,3,19,0.00
2014-3-24,64.9,59.2,55.4,56.0,54.1,52.6,92,84,73,30.09,29.97,9,2,16,0.00
2014-3-25,63.3,58.8,54.6,55.7,54.0,51.1,90,84,73,30.02,29.87,8,2,14,0.00
2014-3-26,67.5,59.6,55.1,55.8,53.3,50.4,91,80,64,29.95,29.86,15,4,23,0.00
2014-3-27,66.4,59.4,53.9,53.1,50.8,48.1,86,74,55,30.07,29.94,10,3,18,0.00
2014-3-28,67.1,58.9,51.5,56.1,52.3,48.5,94,79,63,30.14,30.05,11,2,16,0.00
2014-3-29,71.3,60.5,49.7,58.7,52.6,48.0,95,77,54,30.11,29.93,13,2,15,0.00
2014-3-30,72.5,61.8,55.0,55.1,49.9,42.2,90,67,36,30.03,29.94,20,4,23,0.00
2014-3-31,64.5,56.9,48.2,53.8,49.8,46.4,96,78,63,30.02,29.94,14,3,21,0.00
2014-4-1,63.1,57.1,49.9,53.0,48.0,45.3,92,73,54,30.00,29.92,16,4,19,0.08
2014-4-2,63.0,55.3,48.6,49.3,46.7,43.9,93,74,54,30.04,29.91,17,4,21,0.07
2014-4-3,66.4,55.0,45.3,52.8,48.0,43.3,96,78,56,30.12,30.01,12,2,17,0.00
2014-4-4,64.1,56.9,50.7,52.5,49.2,45.6,88,76,59,30.03,29.92,14,3,18,0.00
2014-4-5,66.7,58.0,48.6,52.7,49.0,46.1,95,73,48,30.02,29.91,16,3,23,0.00
2014-4-6,80.5,65.7,48.9,53.9,43.5,32.4,94,53,23,30.07,29.95,15,2,20,0.00
2014-4-7,86.7,69.3,53.7,54.9,44.0,36.3,68,43,17,30.08,29.99,8,2,15,0.00
2014-4-8,89.9,71.8,54.0,58.0,42.1,28.4,71,40,13,30.07,29.94,8,2,14,0.00
2014-4-9,85.9,68.3,53.9,56.5,44.4,23.6,72,45,14,29.99,29.89,15,2,16,0.00
2014-4-10,79.0,62.3,48.8,54.9,50.1,41.6,90,68,29,29.95,29.86,5,1,10,0.00
2014-4-11,74.2,62.8,55.2,57.9,53.2,47.6,93,73,43,29.91,29.81,18,4,21,0.00
2014-4-12,65.0,58.8,52.1,53.2,50.9,48.6,91,76,62,29.95,29.85,17,3,19,0.00
2014-4-13,65.8,58.9,52.3,53.6,51.0,48.5,90,76,63,30.00,29.92,14,3,16,0.00
2014-4-14,84.6,64.4,49.7,58.0,51.2,34.9,96,67,17,30.03,29.93,9,2,13,0.00
2014-4-15,74.0,60.6,53.2,57.3,53.7,49.1,96,79,54,29.97,29.79,9,2,15,0.00
2014-4-16,67.4,60.0,54.7,56.5,54.2,52.1,93,82,67,29.85,29.75,14,3,16,0.00
2014-4-17,65.2,60.5,56.8,56.1,54.9,53.9,91,82,71,29.89,29.81,10,3,13,0.00
2014-4-18,67.8,62.0,56.8,58.3,55.7,52.9,91,80,65,29.91,29.83,9,2,13,0.00
2014-4-19,70.9,62.1,53.0,58.5,55.2,50.9,95,79,62,30.02,29.90,12,3,17,0.00
2014-4-20,73.0,63.3,55.2,60.2,57.2,52.9,97,82,63,30.04,29.96,12,2,17,0.00
2014-4-21,76.8,62.8,54.9,60.9,56.8,53.4,97,82,55,30.03,29.90,13,3,16,0.00
2014-4-22,69.9,61.8,56.7,56.7,53.9,49.0,92,76,51,29.95,29.86,12,3,20,0.00
2014-4-23,72.6,61.9,51.3,56.7,49.9,35.7,96,68,29,29.95,29.86,11,3,18,0.00
2014-4-24,73.1,62.6,52.1,58.5,51.3,42.9,93,68,44,29.97,29.86,11,3,17,0.00
2014-4-25,66.1,60.6,53.0,58.0,55.6,50.7,96,84,67,29.92,29.78,9,3,20,0.24
2014-4-26,67.5,58.7,52.5,51.8,47.9,45.2,94,68,47,29.95,29.74,14,5,26,0.02
2014-4-27,68.5,57.6,48.7,53.0,48.9,45.3,94,74,47,29.98,29.92,10,2,16,0.00
2014-4-28,77.5,63.4,51.5,58.6,52.7,44.4,97,71,38,29.99,29.85,12,3,16,0.00
2014-4-29,91.1,75.1,54.0,55.4,38.8,25.9,92,37,11,30.01,29.91,9,3,15,0.00
2014-4-30,91.4,77.2,62.2,35.0,27.4,18.2,34,18,8,29.99,29.88,13,3,21,0.00
2014-5-1,92.7,78.1,62.9,36.7,27.4,18.8,32,17,9,30.01,29.88,17,4,22,0.00
2014-5-2,93.5,76.7,59.1,53.8,36.6,26.3,57,27,10,29.95,29.83,11,2,15,0.00
2014-5-3,84.9,71.8,58.7,58.9,51.1,44.2,81,52,26,29.89,29.81,11,2,15,0.00
2014-5-4,77.8,65.2,55.2,59.3,53.1,46.8,86,66,41,29.96,29.86,13,2,15,0.00
2014-5-5,69.3,61.7,56.2,57.0,54.5,50.1,94,78,62,30.00,29.89,13,3,18,0.00
2014-5-6,68.6,60.4,55.1,52.2,49.5,45.4,83,68,46,29.89,29.77,19,4,25,0.00
2014-5-7,69.2,59.3,51.1,55.0,51.2,47.1,92,76,53,29.98,29.82,8,3,17,0.00
2014-5-8,68.7,60.3,51.8,54.6,51.1,47.5,89,73,56,30.04,29.95,10,3,17,0.00
2014-5-9,69.0,60.6,52.4,57.5,54.2,49.6,93,80,62,30.04,29.94,15,3,19,0.00
2014-5-10,72.4,62.3,55.5,58.6,55.3,50.3,96,79,51,29.94,29.78,13,2,18,0.00
2014-5-11,78.1,66.1,55.0,56.9,45.9,34.4,87,52,26,29.92,29.80,12,3,23,0.00
2014-5-12,92.6,75.9,57.6,49.0,33.0,23.7,68,25,10,29.99,29.88,12,3,20,0.00
2014-5-13,93.6,78.9,62.8,42.0,33.8,28.1,46,22,11,30.04,29.94,9,2,15,0.00
2014-5-14,101.3,83.8,67.5,42.6,30.7,22.0,36,17,7,30.00,29.87,10,3,15,0.00
2014-5-15,99.6,84.9,66.2,41.9,29.5,18.7,38,17,6,29.97,29.86,9,2,15,0.00
2014-5-16,88.7,76.1,62.7,57.8,50.0,31.4,78,43,18,29.93,29.82,9,2,15,0.00
2014-5-17,75.8,66.4,61.6,64.0,59.6,52.3,96,80,58,29.88,29.79,9,3,15,0.00
2014-5-18,73.2,65.0,59.6,60.9,58.0,56.1,93,79,60,29.87,29.79,13,4,19,0.00
2014-5-19,72.3,64.3,56.9,59.7,56.0,50.6,91,75,59,29.92,29.84,12,4,18,0.00
2014-5-20,68.9,62.3,55.9,55.7,53.4,51.0,90,74,60,29.98,29.90,15,4,22,0.00
2014-5-21,69.6,62.4,53.9,58.0,54.3,51.4,94,76,62,29.97,29.90,12,3,19,0.00
2014-5-22,70.6,63.2,56.9,57.1,55.3,53.5,90,76,62,29.98,29.90,10,2,13,0.00
2014-5-23,71.0,63.6,59.7,59.5,56.8,55.3,89,79,65,29.99,29.93,12,3,19,0.00
2014-5-24,70.0,64.0,60.2,58.7,57.2,55.7,88,79,64,30.00,29.90,7,2,12,0.00
2014-5-25,73.7,65.9,61.7,62.2,59.3,57.4,89,80,64,29.95,29.84,14,3,18,0.00
2014-5-26,77.3,67.6,60.0,63.3,60.5,57.2,92,79,62,29.95,29.86,13,3,16,0.00
2014-5-27,77.8,67.9,62.3,63.9,61.3,59.4,92,80,61,29.94,29.85,12,4,19,0.00
2014-5-28,73.2,66.2,62.3,62.5,60.6,59.4,93,83,67,29.91,29.78,11,3,16,0.00
2014-5-29,74.5,66.3,60.2,60.8,58.7,56.2,88,77,61,29.90,29.83,9,3,16,0.00
2014-5-30,78.3,67.0,56.8,63.1,58.7,54.9,97,77,47,29.87,29.78,9,3,17,0.00
2014-5-31,79.6,66.6,56.2,63.9,58.6,51.7,95,76,59,29.88,29.81,11,2,16,0.00
2014-6-1,77.3,65.9,54.9,62.4,57.5,50.5,94,75,60,29.86,29.77,10,3,17,0.00
2014-6-2,73.8,63.8,56.8,60.1,56.6,51.8,95,78,60,29.86,29.79,15,3,21,0.00
2014-6-3,78.3,65.8,53.7,62.2,55.5,48.8,96,71,43,29.89,29.76,11,3,15,0.00
2014-6-4,77.0,66.5,56.2,62.1,57.2,52.4,92,73,47,29.85,29.74,11,3,17,0.00
2014-6-5,74.6,65.4,57.4,61.3,58.4,52.0,95,79,62,29.83,29.74,13,3,17,0.00
2014-6-6,71.5,63.5,57.6,60.2,57.4,55.0,93,81,66,29.83,29.77,13,3,19,0.00
2014-6-7,71.5,63.9,59.9,60.3,57.7,56.2,89,81,67,29.82,29.73,11,3,15,0.00
2014-6-8,74.5,66.0,59.9,61.9,59.0,56.8,91,79,63,29.81,29.71,15,3,16,0.00
2014-6-9,72.9,64.0,59.9,62.8,59.7,58.0,95,86,70,29.80,29.72,15,3,19,0.00
2014-6-10,70.0,65.0,62.0,61.3,59.4,57.7,91,83,72,29.86,29.75,7,2,11,0.00
2014-6-11,73.2,66.1,60.9,61.2,58.5,56.2,89,77,64,29.89,29.83,12,3,19,0.00
2014-6-12,72.9,65.5,59.4,60.9,58.4,55.5,92,78,64,29.92,29.88,15,4,19,0.00
2014-6-13,72.4,64.7,58.6,59.8,57.3,55.5,92,78,62,29.92,29.83,15,4,18,0.00
2014-6-14,73.6,65.6,59.4,61.8,58.3,56.2,92,78,64,29.87,29.78,11,3,18,0.00
2014-6-15,73.6,65.4,59.8,61.6,58.3,56.7,92,79,63,29.86,29.79,10,3,18,0.00
2014-6-16,73.5,65.6,58.7,60.2,57.4,54.2,88,76,61,29.90,29.82,12,3,19,0.00
2014-6-17,72.4,64.1,56.3,61.2,57.3,53.9,94,79,66,29.92,29.85,13,3,19,0.00
2014-6-18,72.8,64.7,56.6,59.7,57.2,54.4,94,78,61,29.92,29.85,11,3,14,0.00
2014-6-19,75.7,66.3,57.3,61.7,59.3,55.5,96,79,60,29.93,29.85,12,3,18,0.00
2014-6-20,78.1,67.8,58.0,65.3,61.5,56.6,97,82,62,29.90,29.82,12,3,16,0.00
2014-6-21,74.2,66.8,60.9,63.6,61.6,58.8,95,84,67,29.87,29.81,8,2,13,0.00
2014-6-22,74.5,67.1,62.3,62.6,59.9,57.7,88,78,63,29.90,29.82,12,3,15,0.00
2014-6-23,74.4,67.4,62.6,62.0,60.1,58.6,89,78,63,29.92,29.84,11,3,15,0.00
2014-6-24,73.4,66.7,61.1,63.4,61.1,58.7,94,83,69,29.95,29.84,10,3,18,0.00
2014-6-25,74.0,67.3,62.0,63.2,61.2,59.5,93,81,66,29.90,29.81,14,2,15,0.00
2014-6-26,75.4,67.8,62.8,65.1,62.0,60.2,93,82,69,29.89,29.80,13,3,20,0.00
2014-6-27,78.1,69.7,63.9,65.7,62.9,61.2,92,80,61,29.86,29.78,10,3,16,0.00
2014-6-28,74.2,68.3,64.8,65.7,63.3,61.6,92,84,73,29.84,29.77,12,3,15,0.00
2014-6-29,75.4,68.3,64.5,66.1,63.3,61.2,91,84,72,29.86,29.79,14,4,20,0.00
2014-6-30,72.8,66.5,62.7,64.5,62.1,60.3,92,86,75,29.89,29.79,10,2,16,0.00
2014-7-1,76.5,68.4,62.4,66.4,63.1,59.4,94,84,70,29.87,29.77,12,3,18,0.00
2014-7-2,75.8,67.3,60.3,64.7,62.1,58.5,96,84,67,29.89,29.79,14,2,19,0.00
2014-7-3,80.5,70.0,62.8,67.7,64.2,60.7,95,83,62,29.91,29.79,12,2,15,0.00
2014-7-4,79.1,69.7,63.0,66.5,64.0,61.3,96,83,65,29.98,29.87,9,2,11,0.00
2014-7-5,87.5,74.4,64.4,67.3,62.9,53.1,96,71,34,30.00,29.92,12,2,17,0.00
2014-7-6,86.3,74.5,65.7,68.7,63.6,51.0,92,72,31,29.98,29.85,9,3,18,0.00
2014-7-7,82.6,71.9,64.0,66.0,63.6,57.8,95,77,45,29.90,29.80,10,2,18,0.00
2014-7-8,79.8,70.9,64.3,66.5,64.5,62.2,95,81,62,29.93,29.83,13,3,16,0.00
2014-7-9,79.8,70.7,64.5,67.0,63.6,61.1,90,79,63,29.94,29.83,11,3,16,0.00
2014-7-10,78.4,70.0,64.0,65.3,63.0,61.1,93,79,64,29.94,29.85,13,3,20,0.00
2014-7-11,77.7,69.5,64.5,64.5,62.0,60.0,90,78,62,29.97,29.91,16,4,21,0.00
2014-7-12,76.2,69.5,62.7,66.3,63.1,59.4,94,81,68,29.98,29.87,12,3,17,0.00
2014-7-13,80.2,71.3,62.7,67.2,64.1,60.5,96,79,56,29.90,29.80,14,3,15,0.00
2014-7-14,76.9,68.7,66.5,67.1,64.4,63.0,90,87,72,29.97,29.87,8,2,13,0.00
2014-7-15,76.0,69.5,66.6,67.0,64.2,62.0,92,84,72,30.02,29.94,10,3,15,0.00
2014-7-16,76.7,70.0,64.9,64.5,62.1,59.8,88,77,61,30.02,29.92,10,3,18,0.00
2014-7-17,76.9,69.2,63.0,62.5,60.7,58.5,90,76,58,30.01,29.93,11,3,19,0.00
2014-7-18,76.2,68.8,62.1,64.3,61.1,59.0,91,77,59,29.99,29.90,14,3,19,0.00
2014-7-19,73.1,67.2,62.6,64.1,62.0,59.7,92,84,72,29.95,29.88,10,2,15,0.00
2014-7-20,77.3,69.5,63.3,64.5,62.5,60.5,93,79,62,29.99,29.90,13,3,19,0.00
2014-7-21,77.0,69.9,62.3,64.8,62.6,59.6,93,78,64,30.03,29.94,17,3,21,0.00
2014-7-22,83.3,72.8,61.8,66.8,61.1,52.4,95,69,38,30.02,29.93,14,4,19,0.00
2014-7-23,88.3,74.5,61.6,66.5,60.4,56.1,93,64,36,29.97,29.82,14,2,15,0.00
2014-7-24,92.8,76.5,62.2,66.6,61.8,55.9,92,63,31,29.85,29.68,12,2,16,0.00
2014-7-25,77.6,71.8,67.9,67.4,65.5,59.6,93,81,61,29.88,29.78,7,2,11,0.00
2014-7-26,81.1,71.5,63.8,67.9,64.7,61.3,95,80,61,29.96,29.86,14,3,16,0.00
2014-7-27,82.8,73.1,66.2,67.9,64.0,55.9,91,75,45,29.99,29.87,8,2,14,0.00
2014-7-28,85.8,75.3,68.0,67.2,59.3,33.8,90,62,18,30.03,29.92,11,3,15,0.00
2014-7-29,86.8,73.9,64.9,68.0,62.8,55.8,89,70,39,30.00,29.88,10,3,18,0.00
2014-7-30,85.8,74.0,65.8,67.9,64.8,58.6,92,75,42,29.92,29.84,14,3,17,0.00
2014-7-31,82.7,72.5,64.3,67.6,64.1,60.6,91,76,56,29.90,29.79,14,3,16,0.00
2014-8-1,82.5,71.4,65.1,67.7,64.9,62.8,93,81,60,29.89,29.81,12,3,14,0.00
2014-8-2,79.7,71.3,65.4,70.1,65.5,63.1,94,83,58,29.93,29.82,7,2,10,0.01
2014-8-3,83.7,73.2,70.0,71.9,67.6,64.4,94,83,59,29.91,29.82,12,3,22,0.09
2014-8-4,80.9,72.2,62.9,69.2,64.4,54.1,97,78,43,29.96,29.89,13,3,16,0.00
2014-8-5,81.6,68.3,58.6,64.2,61.0,54.6,97,79,41,30.00,29.93,13,3,16,0.02
2014-8-6,75.0,67.6,63.2,62.6,60.4,59.0,91,79,64,30.03,29.91,14,4,18,0.00
2014-8-7,74.9,67.5,60.7,64.8,61.1,58.5,94,81,64,29.96,29.85,13,3,18,0.00
2014-8-8,76.1,69.2,64.8,65.1,62.9,61.4,90,81,68,29.92,29.83,13,3,19,0.00
2014-8-9,76.6,69.4,65.5,66.5,64.0,62.4,90,83,69,29.95,29.88,16,4,19,0.00
2014-8-10,80.7,72.0,65.4,66.9,64.9,63.0,94,79,61,29.95,29.86,12,3,16,0.00
2014-8-11,79.4,70.3,63.2,67.1,64.1,61.1,95,82,66,29.93,29.85,13,3,19,0.00
2014-8-12,76.5,69.8,64.4,66.2,63.9,61.8,93,82,69,29.95,29.85,15,4,21,0.00
2014-8-13,77.1,68.9,63.1,64.4,62.5,60.1,92,81,64,29.96,29.87,17,4,19,0.00
2014-8-14,82.2,69.5,61.5,65.0,62.2,59.4,95,79,51,29.94,29.85,11,2,13,0.00
2014-8-15,88.4,72.3,59.8,66.3,62.2,58.4,97,73,42,29.96,29.86,10,2,14,0.00
2014-8-16,88.4,74.4,62.5,66.5,59.7,49.2,86,63,28,29.97,29.86,10,2,16,0.00
2014-8-17,83.2,73.0,64.4,67.8,63.4,58.0,88,73,54,29.93,29.79,10,2,16,0.00
2014-8-18,82.7,71.1,62.1,68.2,64.0,59.3,94,79,60,29.85,29.74,11,3,16,0.00
2014-8-19,75.1,69.5,66.1,65.1,63.2,61.4,90,81,71,29.88,29.80,9,3,14,0.00
2014-8-20,78.0,70.7,65.0,64.1,61.9,60.4,88,75,59,29.92,29.83,9,3,15,0.00
2014-8-21,78.2,69.6,63.2,65.2,63.3,60.2,93,81,64,29.93,29.84,13,3,18,0.00
2014-8-22,80.3,70.0,63.6,67.1,64.1,61.1,95,83,63,29.95,29.87,11,3,16,0.00
2014-8-23,77.9,69.8,64.1,65.0,62.4,60.7,90,78,61,29.94,29.81,12,3,16,0.00
2014-8-24,77.6,69.0,61.5,63.9,61.7,59.4,95,79,62,29.88,29.78,12,3,18,0.00
2014-8-25,76.4,68.6,62.5,64.1,61.5,59.5,93,79,64,29.90,29.82,11,3,14,0.00
2014-8-26,81.2,71.0,61.3,65.3,62.4,58.9,93,75,57,29.95,29.87,10,2,16,0.00
2014-8-27,91.4,76.2,62.9,66.5,58.3,47.4,91,59,24,30.00,29.91,13,2,16,0.00
2014-8-28,93.3,76.9,64.7,63.4,57.1,44.2,89,53,24,29.97,29.82,10,2,18,0.00
2014-8-29,81.4,71.8,62.3,67.0,62.3,54.9,88,73,60,29.85,29.75,11,3,18,0.00
2014-8-30,85.0,71.6,61.7,69.5,64.7,59.8,96,80,60,29.81,29.69,9,2,14,0.00
2014-8-31,81.2,72.7,66.0,70.3,67.2,64.2,96,84,65,29.81,29.71,12,3,16,0.00
2014-9-1,81.1,73.0,67.5,67.6,66.0,64.2,92,80,60,29.81,29.73,10,3,11,0.00
2014-9-2,79.9,71.9,66.1,67.9,64.9,63.1,91,79,63,29.82,29.72,12,3,17,0.00
2014-9-3,77.5,71.0,65.3,65.6,63.6,61.7,92,78,65,29.77,29.66,14,3,23,0.00
2014-9-4,76.9,69.6,63.0,64.4,62.6,60.1,91,79,64,29.77,29.69,10,3,19,0.00
2014-9-5,79.4,69.6,61.5,66.3,63.4,59.7,96,82,64,29.86,29.76,16,3,18,0.00
2014-9-6,86.6,72.8,61.8,69.4,64.0,57.7,97,76,53,29.89,29.74,8,2,12,0.00
2014-9-7,93.1,76.2,64.9,68.4,63.0,54.6,84,66,37,29.79,29.69,8,2,14,0.00
2014-9-8,82.5,74.2,69.8,69.8,64.8,56.7,94,74,43,29.84,29.76,8,1,11,0.08
2014-9-9,86.6,73.5,63.8,68.0,62.7,54.6,93,71,38,29.89,29.79,13,2,19,0.00
2014-9-10,86.0,72.3,60.9,68.7,62.7,55.0,97,74,40,29.88,29.75,12,2,14,0.00
2014-9-11,90.6,75.7,64.2,69.3,61.2,50.8,87,64,27,29.83,29.73,10,2,15,0.00
2014-9-12,86.2,74.8,64.4,71.5,65.2,60.8,89,73,55,29.81,29.69,10,2,15,0.00
2014-9-13,91.9,77.7,65.0,70.2,64.6,60.7,90,67,38,29.75,29.63,9,1,17,0.00
2014-9-14,99.1,82.4,68.6,68.9,63.5,54.5,86,57,29,29.72,29.62,8,1,13,0.00
2014-9-15,99.4,84.0,69.3,70.4,63.1,55.7,82,53,25,29.76,29.65,10,2,15,0.00
2014-9-16,99.5,84.2,71.8,68.6,62.1,51.2,80,51,26,29.73,29.63,12,2,16,0.00
2014-9-17,96.5,81.9,72.2,66.9,59.6,47.7,71,49,22,29.73,29.63,15,3,25,0.00
2014-9-18,78.1,71.7,65.5,68.2,63.3,55.3,87,75,53,29.85,29.74,15,3,15,0.00
2014-9-19,78.6,70.6,65.0,64.7,63.2,61.1,90,78,59,29.88,29.78,11,3,17,0.00
2014-9-20,77.9,69.2,63.4,65.7,62.7,60.2,93,81,63,29.93,29.84,9,2,13,0.00
2014-9-21,78.6,69.7,62.2,64.1,62.1,59.2,91,78,58,29.96,29.87,12,2,17,0.00
2014-9-22,79.1,68.3,59.9,66.7,62.6,58.4,97,83,65,29.96,29.86,12,2,16,0.00
2014-9-23,82.7,69.3,59.6,68.3,62.3,56.9,97,80,54,29.95,29.83,10,2,14,0.01
2014-9-24,90.1,73.0,59.8,68.2,60.4,54.2,95,69,31,29.89,29.78,9,1,13,0.00
2014-9-25,91.3,75.9,65.5,68.0,59.3,41.7,85,60,18,29.89,29.80,10,2,17,0.00
2014-9-26,78.7,69.7,62.8,66.0,62.5,58.7,92,78,62,29.85,29.77,16,2,21,0.00
2014-9-27,74.3,66.0,58.7,63.1,59.5,56.3,97,81,61,29.87,29.75,13,2,18,0.00
2014-9-28,74.1,65.9,59.6,63.6,60.3,57.5,95,83,68,29.90,29.80,14,2,18,0.01
2014-9-29,77.5,66.6,57.8,63.6,58.7,55.2,96,77,61,29.91,29.80,9,2,19,0.00
2014-9-30,82.7,69.4,59.8,66.9,60.9,55.9,96,76,49,29.84,29.71,9,2,15,0.00
2014-10-1,76.6,68.2,61.4,65.6,62.5,58.4,95,83,67,29.84,29.72,11,2,15,0.00
2014-10-2,96.1,77.7,59.1,59.8,47.3,31.1,93,45,13,29.93,29.83,7,2,12,0.00
2014-10-3,98.8,79.3,63.6,49.0,37.9,27.3,51,27,9,29.98,29.87,8,2,13,0.00
2014-10-4,101.2,76.8,61.5,63.5,48.4,29.0,79,40,8,29.91,29.79,8,1,13,0.00
2014-10-5,90.1,74.1,58.2,67.1,58.0,42.1,95,63,22,29.88,29.78,9,1,14,0.00
2014-10-6,85.6,72.1,58.7,66.0,57.7,45.4,96,64,26,29.88,29.77,7,1,12,0.00
2014-10-7,89.4,72.4,59.8,65.4,57.5,40.2,91,65,19,29.87,29.76,10,1,13,0.00
2014-10-8,80.1,69.6,60.6,67.1,62.0,53.3,92,78,60,29.84,29.75,12,2,16,0.00
2014-10-9,74.1,68.4,62.6,63.2,61.7,60.0,95,80,66,29.92,29.84,9,2,13,0.00
2014-10-10,77.1,68.5,61.6,65.2,62.6,59.4,94,82,65,29.96,29.87,10,2,15,0.00
2014-10-11,77.6,67.8,60.5,66.2,63.2,59.0,97,86,68,29.96,29.85,12,2,16,0.00
2014-10-12,73.5,67.8,62.6,65.1,63.4,60.8,96,86,73,29.90,29.81,7,2,13,0.00
2014-10-13,76.4,68.7,62.8,66.7,64.1,61.0,96,86,72,29.99,29.90,9,2,15,0.00
2014-10-14,74.2,67.8,64.0,64.1,61.4,58.6,96,81,66,29.97,29.87,11,2,12,0.00
2014-10-15,75.7,67.5,58.7,61.9,59.3,55.4,91,76,60,29.98,29.90,13,2,18,0.00
2014-10-16,74.7,65.3,59.2,64.2,59.5,56.2,96,83,57,29.99,29.88,11,2,16,0.00
2014-10-17,74.9,65.7,58.5,64.3,60.3,57.0,98,84,66,29.95,29.89,12,2,16,0.00
2014-10-18,75.4,65.6,57.8,62.3,58.4,54.0,96,79,54,29.91,29.79,10,2,14,0.00
2014-10-19,75.0,65.9,57.8,64.5,60.7,54.2,97,84,65,29.89,29.79,9,2,16,0.00
2014-10-20,74.2,66.5,60.8,64.4,61.7,59.0,97,85,69,29.92,29.82,13,2,15,0.02
2014-10-21,76.5,66.3,59.9,65.2,61.4,57.4,97,85,62,29.90,29.79,9,2,16,0.00
2014-10-22,80.7,66.5,57.6,66.8,61.1,55.5,97,84,62,29.93,29.84,13,2,14,0.02
2014-10-23,81.5,67.6,57.2,68.4,59.5,52.5,97,77,49,29.97,29.86,10,1,11,0.00
2014-10-24,84.4,68.3,56.3,64.0,56.0,48.4,90,68,32,29.97,29.88,5,1,11,0.00
2014-10-25,80.1,68.4,60.2,64.5,59.6,53.7,91,74,51,30.02,29.94,11,2,17,0.00
2014-10-26,73.9,65.1,59.5,64.6,59.9,55.0,96,84,68,29.97,29.84,7,1,10,0.00
2014-10-27,73.6,64.1,58.0,62.9,59.2,54.3,97,85,65,29.92,29.84,11,2,14,0.01
2014-10-28,75.8,64.7,56.7,64.2,58.8,54.4,98,82,64,29.99,29.91,10,2,14,0.00
2014-10-29,84.3,67.8,56.9,64.7,58.5,54.8,96,75,45,30.01,29.90,10,2,14,0.01
2014-10-30,77.3,65.3,57.1,65.2,59.3,54.5,94,82,55,29.96,29.88,11,2,20,0.00
2014-10-31,69.9,64.2,58.3,62.1,59.3,56.2,96,85,70,29.94,29.80,9,2,14,0.00
2014-11-1,67.6,60.3,55.9,58.6,53.9,50.0,95,80,60,29.95,29.80,9,2,16,0.41
2014-11-2,68.2,58.7,50.1,54.6,50.4,42.8,98,76,54,30.04,29.95,8,2,14,0.12
2014-11-3,73.0,60.5,49.1,56.1,47.2,41.2,93,65,32,30.13,30.03,10,2,18,0.00
2014-11-4,78.7,63.0,50.6,58.6,40.4,28.5,73,48,16,30.17,30.04,13,2,15,0.00
2014-11-5,90.1,70.4,54.1,48.2,33.7,22.6,58,30,10,30.08,29.96,7,1,10,0.00
2014-11-6,92.1,74.0,60.2,50.6,37.3,27.6,55,29,10,30.12,30.01,7,2,10,0.00
2014-11-7,86.7,70.3,59.5,52.0,42.4,32.3,59,40,15,30.07,29.93,8,1,12,0.00
2014-11-8,84.0,67.0,54.8,61.5,50.0,41.4,84,57,28,30.02,29.90,7,1,12,0.00
2014-11-9,75.0,63.1,55.7,62.7,58.2,52.7,96,85,64,29.96,29.77,9,2,12,0.00
2014-11-10,67.1,62.4,57.6,58.2,56.0,53.4,89,80,68,29.87,29.80,5,1,10,0.00
2014-11-11,68.8,63.5,59.0,57.8,56.1,53.5,84,77,66,29.93,29.86,7,1,11,0.00
2014-11-12,71.3,62.2,55.0,57.7,54.8,52.1,92,78,58,30.00,29.91,11,2,17,0.00
2014-11-13,68.2,61.0,53.6,60.5,56.5,51.6,95,86,70,30.06,29.97,8,1,13,0.06
2014-11-14,70.3,63.0,57.1,63.0,59.8,55.6,97,90,73,30.00,29.93,12,2,14,0.00
2014-11-15,70.1,61.2,55.3,61.6,57.5,53.2,98,88,73,30.05,29.96,8,2,13,0.01
2014-11-16,74.2,61.9,52.3,56.3,40.2,23.1,94,51,17,30.14,29.98,7,2,13,0.00
2014-11-17,77.3,64.0,53.0,34.5,24.2,15.5,44,23,11,30.14,30.02,7,2,12,0.00
2014-11-18,76.6,62.4,52.1,40.6,30.1,21.0,48,32,13,30.14,30.04,7,2,12,0.00
2014-11-19,70.4,60.5,51.6,59.2,50.6,33.4,84,70,45,30.12,30.03,8,2,15,0.00
2014-11-20,70.8,60.4,52.5,59.0,54.6,47.7,96,82,63,30.08,29.94,11,2,14,0.00
2014-11-21,71.2,63.3,56.7,57.7,52.6,48.2,87,70,46,30.03,29.89,11,2,16,0.00
2014-11-22,69.1,59.7,51.9,61.2,54.8,49.7,96,84,67,30.09,29.97,8,1,12,0.00
2014-11-23,76.4,63.4,53.8,57.8,43.2,17.9,97,56,15,30.12,30.00,8,2,12,0.01
2014-11-24,79.6,64.6,52.8,41.6,28.6,19.5,47,27,13,30.28,30.10,10,2,12,0.00
2014-11-25,80.5,64.6,54.5,50.2,28.0,19.2,64,28,11,30.36,30.22,7,2,13,0.00
2014-11-26,86.5,64.4,49.9,43.6,36.1,29.1,66,38,14,30.23,30.08,7,1,7,0.00
2014-11-27,89.4,69.1,56.4,45.1,34.7,27.4,59,31,12,30.08,29.95,5,2,10,0.00
2014-11-28,76.7,61.5,50.7,57.9,45.9,37.7,86,59,28,29.97,29.84,5,1,8,0.00
2014-11-29,66.7,60.8,52.4,59.7,56.2,44.5,96,85,74,29.91,29.81,6,2,11,0.00
2014-11-30,67.1,63.2,60.4,61.5,58.6,55.1,95,85,76,30.07,29.85,10,2,16,0.07
2014-12-1,68.9,62.9,58.1,61.2,57.8,52.9,97,84,69,30.14,29.97,5,1,7,0.01
2014-12-2,64.5,60.1,56.9,61.6,56.8,53.4,98,89,69,29.97,29.85,7,2,15,1.17
2014-12-3,64.1,63.1,60.9,63.5,62.4,60.2,98,98,97,29.97,29.87,7,1,14,0.54
2014-12-4,68.2,62.1,57.0,62.8,59.4,55.6,98,91,78,30.05,29.89,7,2,13,0.01
2014-12-5,67.6,60.5,55.5,61.0,57.6,54.6,98,91,77,30.12,30.02,6,1,9,0.01
2014-12-6,71.3,61.3,55.3,62.7,57.9,53.6,98,89,73,30.19,30.11,7,1,11,0.00
2014-12-7,75.2,63.5,54.4,58.7,53.2,50.1,95,71,45,30.16,30.05,6,1,8,0.00
2014-12-8,79.2,65.2,55.1,58.1,51.5,47.5,91,63,36,30.07,29.98,6,2,12,0.00
2014-12-9,73.7,61.7,52.4,59.3,52.5,47.5,93,73,50,30.09,29.96,7,1,14,0.00
2014-12-10,68.2,60.4,55.0,60.7,57.4,52.4,97,90,74,30.01,29.91,8,1,10,0.00
2014-12-11,65.1,62.2,57.8,60.1,57.8,54.5,97,86,73,29.97,29.85,10,2,18,0.01
2014-12-12,64.0,58.8,54.1,58.2,54.6,50.6,96,86,70,30.05,29.79,35,4,36,1.03
2014-12-13,64.5,56.2,48.8,52.9,47.6,43.1,93,75,46,30.11,30.04,8,1,12,0.01
2014-12-14,63.9,54.5,46.9,54.2,48.8,43.8,94,82,67,30.12,30.02,7,1,9,0.00
2014-12-15,63.5,55.5,47.7,53.8,50.3,46.1,95,84,66,30.06,29.95,7,1,10,0.00
2014-12-16,60.5,57.3,54.2,58.2,54.5,52.2,95,91,83,30.00,29.92,7,2,14,0.42
2014-12-17,64.5,57.2,51.6,55.6,51.2,47.5,96,81,60,30.08,29.92,8,2,15,0.22
2014-12-18,61.1,54.4,48.4,53.1,50.0,46.1,96,86,68,30.19,30.07,7,1,9,0.00
2014-12-19,65.6,56.5,49.6,55.7,51.3,48.2,96,84,64,30.22,30.11,6,1,13,0.01
2014-12-20,64.4,57.3,50.9,57.1,53.6,48.9,94,88,74,30.18,30.09,5,1,10,0.00
2014-12-21,65.6,58.9,53.3,59.2,55.2,51.1,95,88,77,30.13,30.01,5,1,10,0.00
2014-12-22,72.0,59.4,50.3,61.9,55.0,49.2,98,87,57,30.04,29.90,7,1,10,0.01
2014-12-23,83.8,64.5,51.7,62.9,50.1,44.0,94,65,25,30.06,29.95,6,1,8,0.01
2014-12-24,74.5,62.1,52.9,59.3,48.9,41.6,92,65,34,30.05,29.79,11,2,13,0.00
2014-12-25,65.6,58.5,52.3,55.8,31.9,18.8,86,39,22,29.91,29.75,16,5,25,0.00
2014-12-26,63.7,53.8,44.2,32.1,24.8,18.4,51,34,18,30.18,29.90,9,2,13,0.00
2014-12-27,63.1,53.2,42.9,39.4,28.1,20.2,69,40,20,30.32,30.18,8,2,10,0.00
2014-12-28,61.2,50.3,41.8,45.1,38.5,30.1,87,66,34,30.27,30.14,6,1,13,0.00
2014-12-29,61.3,51.1,42.1,50.6,44.9,39.6,92,80,62,30.14,30.01,6,1,9,0.00
2014-12-30,59.4,51.2,45.6,48.3,44.1,36.2,94,78,56,30.02,29.85,12,2,21,0.19
2014-12-31,55.3,48.4,40.9,37.9,24.2,17.7,74,40,25,30.04,29.91,9,2,17,0.00
2015-1-1,57.2,46.8,37.7,42.2,34.9,20.0,82,64,37,30.15,30.03,8,1,9,0.00
2015-1-2,58.8,48.2,38.7,47.4,41.1,35.1,91,78,59,30.15,30.04,7,1,12,0.00